User: anonymous   Login
Location: Daytona Beach
(29.2106°N, 81.0231°W)
Time: 10:50:38
(UTC-04:00)
Language:

JUGNU - Orbit

View from above orbital plane
View from above orbital plane
View from above satellite
View from above satellite

Ground track
Ground track

The orbit data is extracted from the following two-line orbital elements,

1 37839U 11058B   21267.54827558  .00000353  00000-0  46472-4 0  9995
2 37839  19.9624 348.2090 0019021 104.5571 284.5538 14.12725641514609
Epoch (UTC): 24 September 2021 13:09:31
Eccentricity: 0.0019021
inclination: 19.9624°
perigee height: 836 km
apogee height: 864 km
right ascension of ascending node: 348.2090°
argument of perigee: 104.5571°
revolutions per day: 14.12725641
mean anomaly at epoch: 284.5538°
orbit number at epoch: 51460

The dashed part of the orbit path shows where the satellite is in the earth's shadow,  

DLR